AWQ605 YPCC-WIII

Flight info

Callsign AWQ605
Flight time 2h 18m
Altitude 35000
Route CC G200 XMX R206 LADIR
Aircraft A320/M-SDE3FGHIRWY/LB1

Departure

Time 2026-04-25 10:42
Airport Cocos (Keeling) Islands Airport (YPCC)

Arrival

Time 2026-04-25 13:00
Airport Soekarno-Hatta International Airport (WIII)
Time Latitude Longitude Altitude Speed Heading
2026-04-25 10:28 -12.18455 96.82828 14 ft 0 kts 183°
2026-04-25 10:38 -12.18470 96.82833 14 ft 4 kts 146°
2026-04-25 10:38 -12.18466 96.82871 16 ft 8 kts 49°
2026-04-25 10:39 -12.18419 96.82863 16 ft 6 kts 358°
2026-04-25 10:39 -12.18395 96.82886 14 ft 4 kts 59°
2026-04-25 10:39 -12.18383 96.82904 15 ft 2 kts 50°
2026-04-25 10:39 -12.18372 96.82910 14 ft 2 kts 10°
2026-04-25 10:40 -12.18337 96.82891 14 ft 9 kts 330°
2026-04-25 10:40 -12.18260 96.82847 16 ft 14 kts 334°
2026-04-25 10:40 -12.18200 96.82815 15 ft 1 kts 252°
2026-04-25 10:40 -12.18207 96.82815 15 ft 1 kts 196°
2026-04-25 10:41 -12.18232 96.82829 15 ft 4 kts 150°
2026-04-25 10:41 -12.18292 96.82864 14 ft 31 kts 150°
2026-04-25 10:41 -12.18534 96.83010 14 ft 87 kts 150°
2026-04-25 10:41 -12.19270 96.83453 28 ft 152 kts 149°
2026-04-25 10:42 -12.20184 96.84013 713 ft 154 kts 149°
2026-04-25 10:42 -12.21110 96.84581 1547 ft 155 kts 149°
2026-04-25 10:42 -12.22057 96.85166 1937 ft 168 kts 148°
2026-04-25 10:42 -12.23124 96.85823 2180 ft 190 kts 148°
2026-04-25 10:43 -12.24242 96.86686 2413 ft 214 kts 128°
2026-04-25 10:43 -12.24785 96.88167 2700 ft 240 kts 91°
2026-04-25 10:43 -12.24540 96.89925 3177 ft 258 kts 81°
2026-04-25 10:43 -12.24162 96.91735 3920 ft 261 kts 80°
2026-04-25 10:44 -12.23762 96.93565 4681 ft 265 kts 79°
2026-04-25 10:44 -12.23357 96.95413 5450 ft 267 kts 79°
2026-04-25 10:44 -12.22951 96.97284 6179 ft 271 kts 79°
2026-04-25 10:44 -12.22545 96.99182 6843 ft 275 kts 79°
2026-04-25 10:45 -12.22135 97.01110 7488 ft 280 kts 78°
2026-04-25 10:45 -12.21720 97.03078 8132 ft 285 kts 78°
2026-04-25 10:45 -12.21301 97.05074 8784 ft 289 kts 78°
2026-04-25 10:45 -12.20884 97.07069 9415 ft 294 kts 78°
2026-04-25 10:46 -12.20455 97.09130 10025 ft 298 kts 78°
2026-04-25 10:46 -12.20009 97.11270 10239 ft 319 kts 78°
2026-04-25 10:46 -12.19528 97.13565 10360 ft 340 kts 77°
2026-04-25 10:46 -12.19017 97.16000 10477 ft 360 kts 77°
2026-04-25 10:47 -12.18479 97.18565 10608 ft 378 kts 77°
2026-04-25 10:47 -12.17921 97.21218 10989 ft 385 kts 77°
2026-04-25 10:47 -12.17354 97.23915 11492 ft 389 kts 77°
2026-04-25 10:47 -12.16782 97.26627 12029 ft 392 kts 77°
2026-04-25 10:48 -12.16206 97.29364 12551 ft 395 kts 77°
2026-04-25 10:48 -12.15628 97.32127 13064 ft 398 kts 77°
2026-04-25 10:48 -12.15045 97.34907 13579 ft 401 kts 77°
2026-04-25 10:48 -12.14458 97.37709 14033 ft 404 kts 77°
2026-04-25 10:49 -12.13865 97.40539 14457 ft 408 kts 77°
2026-04-25 10:49 -12.13268 97.43382 14866 ft 411 kts 77°
2026-04-25 10:49 -12.12664 97.46252 15285 ft 415 kts 77°
2026-04-25 10:49 -12.12052 97.49148 15693 ft 418 kts 77°
2026-04-25 10:50 -12.11434 97.52073 16107 ft 422 kts 77°
2026-04-25 10:50 -12.10820 97.54981 16505 ft 425 kts 77°
2026-04-25 10:50 -12.10192 97.57954 16904 ft 429 kts 77°
2026-04-25 10:50 -12.09558 97.60950 17287 ft 432 kts 77°
2026-04-25 10:51 -12.08919 97.63972 17680 ft 435 kts 77°
2026-04-25 10:51 -12.08278 97.67004 18071 ft 438 kts 77°
2026-04-25 10:51 -12.07631 97.70062 18403 ft 440 kts 77°
2026-04-25 10:51 -12.06980 97.73129 18724 ft 443 kts 77°
2026-04-25 10:52 -12.06328 97.76207 19051 ft 445 kts 77°
2026-04-25 10:52 -12.05674 97.79305 19376 ft 446 kts 77°
2026-04-25 10:52 -12.05016 97.82415 19698 ft 448 kts 77°
2026-04-25 10:52 -12.04355 97.85536 20013 ft 450 kts 77°
2026-04-25 10:53 -12.03699 97.88630 20317 ft 452 kts 77°
2026-04-25 10:53 -12.03022 97.91819 20615 ft 454 kts 77°
2026-04-25 10:53 -12.02359 97.94933 20900 ft 455 kts 77°
2026-04-25 10:53 -12.01682 97.98112 21188 ft 457 kts 77°
2026-04-25 10:54 -12.01002 98.01304 21473 ft 459 kts 77°
2026-04-25 10:54 -12.00550 98.03427 21660 ft 460 kts 77°
2026-04-25 10:54 -11.99637 98.07712 22027 ft 462 kts 77°
2026-04-25 10:54 -11.98949 98.10927 22292 ft 464 kts 77°
2026-04-25 10:55 -11.98269 98.14115 22542 ft 466 kts 77°
2026-04-25 10:55 -11.97568 98.17397 22799 ft 467 kts 77°
2026-04-25 10:55 -11.96882 98.20606 23047 ft 469 kts 77°
2026-04-25 10:55 -11.96186 98.23869 23268 ft 471 kts 77°
2026-04-25 10:56 -11.95487 98.27150 23488 ft 472 kts 77°
2026-04-25 10:56 -11.94786 98.30430 23664 ft 474 kts 77°
2026-04-25 10:56 -11.94082 98.33727 23843 ft 475 kts 77°
2026-04-25 10:56 -11.93375 98.37039 24018 ft 477 kts 77°
2026-04-25 10:57 -11.92665 98.40359 24190 ft 478 kts 77°
2026-04-25 10:57 -11.91953 98.43681 24358 ft 480 kts 77°
2026-04-25 10:57 -11.91234 98.47024 24522 ft 482 kts 77°
2026-04-25 10:57 -11.90517 98.50348 24679 ft 483 kts 77°
2026-04-25 10:58 -11.89796 98.53712 24845 ft 485 kts 77°
2026-04-25 10:58 -11.89073 98.57083 24998 ft 486 kts 77°
2026-04-25 10:58 -11.88348 98.60471 25137 ft 488 kts 77°
2026-04-25 10:58 -11.87626 98.63854 25294 ft 489 kts 77°
2026-04-25 10:59 -11.86895 98.67261 25440 ft 491 kts 77°
2026-04-25 10:59 -11.86158 98.70678 25590 ft 492 kts 77°
2026-04-25 10:59 -11.85418 98.74104 25729 ft 494 kts 77°
2026-04-25 10:59 -11.84675 98.77531 25868 ft 495 kts 77°
2026-04-25 11:00 -11.83938 98.80928 26000 ft 496 kts 77°
2026-04-25 11:00 -11.83190 98.84381 26133 ft 497 kts 77°
2026-04-25 11:00 -11.82442 98.87836 26259 ft 498 kts 77°
2026-04-25 11:00 -11.81696 98.91289 26376 ft 499 kts 77°
2026-04-25 11:01 -11.80949 98.94757 26553 ft 499 kts 77°
2026-04-25 11:01 -11.80200 98.98212 26757 ft 498 kts 77°
2026-04-25 11:01 -11.79448 99.01671 26947 ft 498 kts 77°
2026-04-25 11:01 -11.78700 99.05132 27113 ft 498 kts 77°
2026-04-25 11:02 -11.77952 99.08589 27310 ft 498 kts 77°
2026-04-25 11:02 -11.77202 99.12052 27486 ft 498 kts 77°
2026-04-25 11:02 -11.76451 99.15503 27674 ft 498 kts 77°
2026-04-25 11:02 -11.75695 99.18961 27866 ft 498 kts 77°
2026-04-25 11:03 -11.74950 99.22363 28048 ft 498 kts 77°
2026-04-25 11:03 -11.74195 99.25828 28248 ft 498 kts 77°
2026-04-25 11:03 -11.73448 99.29276 28447 ft 498 kts 77°
2026-04-25 11:03 -11.72701 99.32724 28641 ft 498 kts 77°
2026-04-25 11:04 -11.71950 99.36176 28833 ft 498 kts 77°
2026-04-25 11:04 -11.71200 99.39631 29026 ft 498 kts 77°
2026-04-25 11:04 -11.70450 99.43078 29228 ft 498 kts 77°
2026-04-25 11:04 -11.69942 99.45411 29364 ft 498 kts 77°
2026-04-25 11:05 -11.68941 99.49993 29635 ft 498 kts 77°
2026-04-25 11:05 -11.68187 99.53442 29835 ft 498 kts 77°
2026-04-25 11:05 -11.67430 99.56902 30022 ft 499 kts 77°
2026-04-25 11:05 -11.66671 99.60353 30188 ft 499 kts 77°
2026-04-25 11:06 -11.65910 99.63802 30359 ft 499 kts 77°
2026-04-25 11:06 -11.65154 99.67251 30536 ft 499 kts 77°
2026-04-25 11:06 -11.64400 99.70702 30719 ft 498 kts 77°
2026-04-25 11:06 -11.63645 99.74165 30906 ft 498 kts 77°
2026-04-25 11:07 -11.62892 99.77612 31091 ft 498 kts 77°
2026-04-25 11:07 -11.62134 99.81063 31282 ft 498 kts 77°
2026-04-25 11:07 -11.61374 99.84513 31475 ft 497 kts 77°
2026-04-25 11:07 -11.60613 99.87962 31681 ft 497 kts 77°
2026-04-25 11:08 -11.59865 99.91359 31875 ft 496 kts 76°
2026-04-25 11:08 -11.59104 99.94799 32092 ft 495 kts 76°
2026-04-25 11:08 -11.58345 99.98229 32305 ft 495 kts 76°
2026-04-25 11:08 -11.57590 100.01652 32516 ft 494 kts 76°
2026-04-25 11:09 -11.56835 100.05075 32729 ft 493 kts 76°
2026-04-25 11:09 -11.56081 100.08495 32950 ft 493 kts 76°
2026-04-25 11:09 -11.55328 100.11907 33164 ft 492 kts 76°
2026-04-25 11:09 -11.54578 100.15312 33388 ft 491 kts 76°
2026-04-25 11:10 -11.53828 100.18713 33618 ft 490 kts 76°
2026-04-25 11:10 -11.52331 100.25489 34053 ft 488 kts 76°
2026-04-25 11:10 -11.51595 100.28816 34253 ft 487 kts 76°
2026-04-25 11:11 -11.50846 100.32179 34456 ft 486 kts 76°
2026-04-25 11:11 -11.50099 100.35535 34651 ft 485 kts 76°
2026-04-25 11:11 -11.49352 100.38898 34840 ft 484 kts 76°
2026-04-25 11:11 -11.48611 100.42246 34968 ft 484 kts 76°
2026-04-25 11:12 -11.47867 100.45605 35002 ft 486 kts 76°
2026-04-25 11:12 -11.46386 100.52357 34999 ft 487 kts 77°
2026-04-25 11:13 -11.45286 100.58009 35000 ft 488 kts 78°
2026-04-25 11:13 -11.44051 100.64812 35000 ft 487 kts 78°
2026-04-25 11:14 -11.42790 100.71605 34998 ft 487 kts 77°
2026-04-25 11:14 -11.41496 100.78352 34997 ft 487 kts 77°
2026-04-25 11:15 -11.40175 100.85162 35000 ft 487 kts 77°
2026-04-25 11:15 -11.38865 100.91947 35005 ft 487 kts 77°
2026-04-25 11:16 -11.36924 101.02080 35007 ft 487 kts 77°
2026-04-25 11:16 -11.35611 101.08865 35013 ft 486 kts 77°
2026-04-25 11:17 -11.34300 101.15634 35013 ft 486 kts 77°
2026-04-25 11:17 -11.32989 101.22393 35013 ft 486 kts 77°
2026-04-25 11:18 -11.31690 101.29103 35012 ft 485 kts 77°
2026-04-25 11:18 -11.30390 101.35866 35024 ft 485 kts 77°
2026-04-25 11:19 -11.29089 101.42617 35023 ft 484 kts 77°
2026-04-25 11:19 -11.27774 101.49341 35022 ft 484 kts 77°
2026-04-25 11:20 -11.26459 101.56030 35025 ft 483 kts 77°
2026-04-25 11:20 -11.25147 101.62749 35025 ft 483 kts 77°
2026-04-25 11:21 -11.23842 101.69473 35033 ft 483 kts 77°
2026-04-25 11:21 -11.22533 101.76184 35034 ft 483 kts 77°
2026-04-25 11:22 -11.21444 101.81760 35032 ft 482 kts 77°
2026-04-25 11:22 -11.19914 101.89599 35033 ft 482 kts 77°
2026-04-25 11:23 -11.18595 101.96301 35030 ft 482 kts 77°
2026-04-25 11:23 -11.17278 102.02993 35037 ft 481 kts 77°
2026-04-25 11:24 -11.15973 102.09684 35038 ft 481 kts 77°
2026-04-25 11:24 -11.14666 102.16325 35030 ft 480 kts 77°
2026-04-25 11:25 -11.13352 102.22981 35026 ft 480 kts 77°
2026-04-25 11:25 -11.12034 102.29640 35030 ft 479 kts 77°
2026-04-25 11:26 -11.10716 102.36293 35026 ft 479 kts 77°
2026-04-25 11:26 -11.09398 102.42946 35027 ft 479 kts 77°
2026-04-25 11:27 -11.08086 102.49595 35025 ft 478 kts 77°
2026-04-25 11:27 -11.07003 102.55110 35022 ft 478 kts 77°
2026-04-25 11:28 -11.05460 102.62878 35022 ft 478 kts 77°
2026-04-25 11:28 -11.04144 102.69513 35022 ft 477 kts 77°
2026-04-25 11:29 -11.02838 102.76102 35022 ft 477 kts 77°
2026-04-25 11:29 -11.01516 102.82732 35021 ft 477 kts 77°
2026-04-25 11:30 -11.00187 102.89353 35020 ft 476 kts 77°
2026-04-25 11:30 -10.98864 102.95962 35020 ft 476 kts 77°
2026-04-25 11:31 -10.97560 103.02534 35021 ft 476 kts 77°
2026-04-25 11:31 -10.96240 103.09141 35020 ft 475 kts 77°
2026-04-25 11:32 -10.94920 103.15751 35019 ft 475 kts 76°
2026-04-25 11:32 -10.93594 103.22344 35019 ft 475 kts 76°
2026-04-25 11:33 -10.92269 103.28927 35019 ft 475 kts 76°
2026-04-25 11:33 -10.90936 103.35533 35024 ft 475 kts 76°
2026-04-25 11:34 -10.89627 103.42083 35029 ft 475 kts 76°
2026-04-25 11:34 -10.88299 103.48664 35026 ft 475 kts 76°
2026-04-25 11:35 -10.86965 103.55250 35017 ft 475 kts 76°
2026-04-25 11:35 -10.85634 103.61847 35018 ft 474 kts 76°
2026-04-25 11:36 -10.84308 103.68428 35016 ft 474 kts 76°
2026-04-25 11:36 -10.82972 103.75005 35018 ft 474 kts 76°
2026-04-25 11:37 -10.81646 103.81533 35018 ft 474 kts 76°
2026-04-25 11:37 -10.80312 103.88105 35020 ft 474 kts 76°
2026-04-25 11:38 -10.78979 103.94669 35026 ft 473 kts 76°
2026-04-25 11:38 -10.77639 104.01233 35025 ft 473 kts 76°
2026-04-25 11:39 -10.76306 104.07789 35030 ft 473 kts 76°
2026-04-25 11:39 -10.74975 104.14358 35029 ft 474 kts 76°
2026-04-25 11:40 -10.73632 104.20924 35029 ft 473 kts 76°
2026-04-25 11:40 -10.72293 104.27446 35029 ft 473 kts 76°
2026-04-25 11:41 -10.70952 104.33994 35026 ft 473 kts 76°
2026-04-25 11:41 -10.69613 104.40544 35031 ft 473 kts 76°
2026-04-25 11:42 -10.68274 104.47092 35028 ft 472 kts 76°
2026-04-25 11:42 -10.66938 104.53644 35028 ft 472 kts 76°
2026-04-25 11:43 -10.65590 104.60177 35030 ft 472 kts 76°
2026-04-25 11:43 -10.64239 104.66703 35033 ft 472 kts 76°
2026-04-25 11:44 -10.62900 104.73204 35030 ft 472 kts 76°
2026-04-25 11:44 -10.61561 104.79724 35035 ft 471 kts 76°
2026-04-25 11:45 -10.60218 104.86252 35028 ft 471 kts 76°
2026-04-25 11:45 -10.58877 104.92773 35026 ft 471 kts 76°
2026-04-25 11:46 -10.57754 104.98190 35027 ft 471 kts 76°
2026-04-25 11:46 -10.56396 105.04710 35029 ft 470 kts 76°
2026-04-25 11:47 -10.55046 105.11213 35026 ft 470 kts 76°
2026-04-25 11:47 -10.53692 105.17711 35024 ft 470 kts 76°
2026-04-25 11:48 -10.52337 105.24225 35030 ft 470 kts 76°
2026-04-25 11:48 -10.50989 105.30733 35031 ft 470 kts 76°
2026-04-25 11:49 -10.49638 105.37237 35042 ft 470 kts 76°
2026-04-25 11:49 -10.48281 105.43738 35047 ft 470 kts 76°
2026-04-25 11:50 -10.46923 105.50241 35053 ft 469 kts 76°
2026-04-25 11:50 -10.45570 105.56734 35064 ft 469 kts 76°
2026-04-25 11:51 -10.43811 105.63042 35071 ft 466 kts 62°
2026-04-25 11:51 -10.42113 105.65875 35063 ft 462 kts 50°
2026-04-25 11:51 -10.39921 105.68249 35063 ft 460 kts 39°
2026-04-25 11:52 -10.37361 105.70101 35057 ft 457 kts 27°
2026-04-25 11:52 -10.34466 105.71425 35048 ft 455 kts 17°
2026-04-25 11:52 -10.28391 105.73218 35037 ft 455 kts 15°
2026-04-25 11:53 -10.22253 105.75015 35024 ft 456 kts 15°
2026-04-25 11:53 -10.16142 105.76805 35016 ft 457 kts 15°
2026-04-25 11:54 -10.10017 105.78595 35006 ft 457 kts 15°
2026-04-25 11:55 -10.00839 105.81282 35009 ft 457 kts 15°
2026-04-25 11:55 -9.94723 105.83074 35012 ft 458 kts 15°
2026-04-25 11:56 -9.88602 105.84862 35013 ft 458 kts 15°
2026-04-25 11:56 -9.82480 105.86648 35012 ft 458 kts 15°
2026-04-25 11:57 -9.76360 105.88441 35016 ft 458 kts 15°
2026-04-25 11:57 -9.70219 105.90236 35013 ft 458 kts 15°
2026-04-25 11:58 -9.64096 105.92012 35016 ft 458 kts 15°
2026-04-25 11:58 -9.57968 105.93796 35015 ft 458 kts 15°
2026-04-25 11:59 -9.51828 105.95594 35013 ft 458 kts 15°
2026-04-25 11:59 -9.45704 105.97379 35012 ft 458 kts 15°
2026-04-25 12:00 -9.36466 106.00072 35010 ft 458 kts 15°
2026-04-25 12:01 -9.27308 106.02739 35014 ft 458 kts 15°
2026-04-25 12:01 -9.21143 106.04533 35013 ft 458 kts 15°
2026-04-25 12:02 -9.11924 106.07219 35012 ft 459 kts 15°
2026-04-25 12:02 -9.05765 106.09005 35010 ft 459 kts 15°
2026-04-25 12:03 -8.99617 106.10790 35010 ft 460 kts 15°
2026-04-25 12:03 -8.93453 106.12574 35000 ft 461 kts 15°
2026-04-25 12:04 -8.87288 106.14374 35004 ft 461 kts 15°
2026-04-25 12:04 -8.81116 106.16175 35011 ft 462 kts 15°
2026-04-25 12:05 -8.74943 106.17971 35011 ft 462 kts 15°
2026-04-25 12:05 -8.68752 106.19764 35006 ft 463 kts 15°
2026-04-25 12:06 -8.62756 106.22072 35007 ft 463 kts 31°
2026-04-25 12:06 -8.57923 106.26332 35006 ft 465 kts 52°
2026-04-25 12:07 -8.56160 106.29082 35004 ft 465 kts 63°
2026-04-25 12:07 -8.54772 106.32083 35003 ft 466 kts 65°
2026-04-25 12:07 -8.52065 106.38039 35004 ft 467 kts 64°
2026-04-25 12:08 -8.49337 106.44007 35004 ft 468 kts 64°
2026-04-25 12:08 -8.46610 106.49980 35008 ft 468 kts 64°
2026-04-25 12:09 -8.43893 106.55951 35006 ft 468 kts 64°
2026-04-25 12:09 -8.41168 106.61923 35013 ft 468 kts 64°
2026-04-25 12:10 -8.38437 106.67894 35018 ft 468 kts 64°
2026-04-25 12:10 -8.35709 106.73860 35027 ft 468 kts 64°
2026-04-25 12:11 -8.32983 106.79824 35022 ft 468 kts 64°
2026-04-25 12:11 -8.30236 106.85813 35027 ft 468 kts 64°
2026-04-25 12:12 -8.27963 106.90780 35024 ft 468 kts 64°
2026-04-25 12:12 -8.24789 106.97724 35035 ft 468 kts 65°
2026-04-25 12:13 -8.22055 107.03701 35037 ft 468 kts 65°
2026-04-25 12:13 -8.19783 107.08674 35039 ft 468 kts 65°
2026-04-25 12:14 -8.17043 107.14641 35038 ft 468 kts 64°
2026-04-25 12:14 -8.14303 107.20601 35031 ft 468 kts 65°
2026-04-25 12:15 -8.11566 107.26562 35032 ft 467 kts 65°
2026-04-25 12:15 -8.08839 107.32512 35034 ft 467 kts 65°
2026-04-25 12:16 -8.06114 107.38456 35029 ft 466 kts 65°
2026-04-25 12:16 -8.03386 107.44396 35028 ft 466 kts 65°
2026-04-25 12:17 -8.00653 107.50346 35023 ft 467 kts 65°
2026-04-25 12:17 -7.97920 107.56290 35025 ft 467 kts 65°
2026-04-25 12:18 -7.95185 107.62231 35024 ft 467 kts 65°
2026-04-25 12:18 -7.92438 107.68181 35029 ft 467 kts 65°
2026-04-25 12:19 -7.88334 107.77097 35037 ft 466 kts 65°
2026-04-25 12:20 -7.85607 107.83033 35034 ft 466 kts 65°
2026-04-25 12:20 -7.82864 107.88991 35039 ft 466 kts 65°
2026-04-25 12:21 -7.80126 107.94933 35045 ft 465 kts 65°
2026-04-25 12:21 -7.77395 108.00841 35045 ft 465 kts 64°
2026-04-25 12:22 -7.74674 108.06751 35055 ft 464 kts 65°
2026-04-25 12:22 -7.71948 108.12654 35058 ft 464 kts 64°
2026-04-25 12:23 -7.69202 108.18592 35058 ft 463 kts 64°
2026-04-25 12:23 -7.65822 108.24087 35052 ft 462 kts 46°
2026-04-25 12:23 -7.63389 108.26209 35051 ft 461 kts 34°
2026-04-25 12:24 -7.60585 108.27759 35056 ft 461 kts 22°
2026-04-25 12:24 -7.57473 108.28701 35050 ft 462 kts 10°
2026-04-25 12:24 -7.54275 108.29001 35043 ft 462 kts
2026-04-25 12:25 -7.47795 108.29249 35040 ft 463 kts
2026-04-25 12:25 -7.41347 108.29501 35048 ft 464 kts
2026-04-25 12:26 -7.34873 108.29758 35053 ft 465 kts
2026-04-25 12:26 -7.28312 108.30018 35063 ft 465 kts
2026-04-25 12:27 -7.21789 108.30276 35066 ft 466 kts
2026-04-25 12:27 -7.15336 108.30536 35084 ft 466 kts
2026-04-25 12:28 -7.08809 108.30798 35075 ft 466 kts
2026-04-25 12:28 -7.02328 108.31050 35076 ft 467 kts
2026-04-25 12:29 -6.95785 108.31301 35076 ft 467 kts
2026-04-25 12:29 -6.89265 108.31563 35071 ft 467 kts
2026-04-25 12:30 -6.82726 108.31825 35064 ft 467 kts
2026-04-25 12:30 -6.76196 108.32082 35057 ft 467 kts
2026-04-25 12:31 -6.70744 108.32296 35056 ft 467 kts
2026-04-25 12:31 -6.64246 108.32554 35043 ft 467 kts
2026-04-25 12:32 -6.57702 108.32812 35040 ft 467 kts
2026-04-25 12:32 -6.51112 108.33081 35041 ft 468 kts
2026-04-25 12:33 -6.44547 108.33339 35040 ft 468 kts
2026-04-25 12:33 -6.37952 108.33587 35038 ft 468 kts
2026-04-25 12:34 -6.31545 108.32510 35034 ft 470 kts 340°
2026-04-25 12:34 -6.28594 108.31103 35025 ft 471 kts 329°
2026-04-25 12:34 -6.25972 108.29196 35024 ft 472 kts 319°
2026-04-25 12:35 -6.21346 108.24494 35016 ft 472 kts 315°
2026-04-25 12:35 -6.16757 108.19742 35018 ft 473 kts 315°
2026-04-25 12:36 -6.12176 108.15000 35022 ft 473 kts 315°
2026-04-25 12:36 -6.07574 108.10261 35024 ft 474 kts 315°
2026-04-25 12:37 -6.02956 108.05526 35037 ft 474 kts 315°
2026-04-25 12:37 -5.98781 108.00421 34981 ft 474 kts 301°
2026-04-25 12:37 -5.97317 107.97440 34094 ft 479 kts 290°
2026-04-25 12:38 -5.96431 107.94191 32933 ft 486 kts 278°
2026-04-25 12:38 -5.96159 107.90790 31825 ft 490 kts 269°
2026-04-25 12:38 -5.96201 107.87352 30722 ft 493 kts 269°
2026-04-25 12:38 -5.96219 107.83923 29045 ft 492 kts 269°
2026-04-25 12:39 -5.96214 107.80284 27007 ft 501 kts 270°
2026-04-25 12:39 -5.96199 107.76957 26008 ft 502 kts 270°
2026-04-25 12:39 -5.96183 107.73513 25762 ft 483 kts 270°
2026-04-25 12:39 -5.96170 107.70199 25639 ft 465 kts 270°
2026-04-25 12:40 -5.96162 107.67016 25518 ft 448 kts 269°
2026-04-25 12:40 -5.96159 107.63922 25278 ft 437 kts 269°
2026-04-25 12:40 -5.96158 107.60894 24868 ft 432 kts 269°
2026-04-25 12:40 -5.96162 107.57872 24298 ft 431 kts 269°
2026-04-25 12:41 -5.96166 107.54872 23831 ft 427 kts 269°
2026-04-25 12:41 -5.96168 107.51884 23311 ft 425 kts 270°
2026-04-25 12:41 -5.96170 107.48934 22810 ft 421 kts 270°
2026-04-25 12:41 -5.96172 107.46002 22301 ft 418 kts 270°
2026-04-25 12:42 -5.96173 107.43103 22024 ft 410 kts 270°
2026-04-25 12:42 -5.96173 107.41218 21827 ft 404 kts 270°
2026-04-25 12:42 -5.96170 107.37469 21292 ft 398 kts 270°
2026-04-25 12:42 -5.96168 107.34718 20602 ft 392 kts 270°
2026-04-25 12:43 -5.96167 107.31997 19824 ft 387 kts 270°
2026-04-25 12:43 -5.96167 107.29263 19063 ft 383 kts 270°
2026-04-25 12:43 -5.96163 107.23995 18154 ft 380 kts 270°
2026-04-25 12:44 -5.96156 107.21382 17704 ft 378 kts 270°
2026-04-25 12:44 -5.96149 107.18753 17239 ft 376 kts 270°
2026-04-25 12:44 -5.96142 107.13552 16112 ft 368 kts 270°
2026-04-25 12:45 -5.96141 107.11817 15593 ft 366 kts 270°
2026-04-25 12:45 -5.96135 107.08443 14862 ft 365 kts 270°
2026-04-25 12:45 -5.96120 107.03320 14026 ft 364 kts 271°
2026-04-25 12:46 -5.96113 107.00794 13681 ft 360 kts 271°
2026-04-25 12:46 -5.96106 106.98284 13229 ft 358 kts 270°
2026-04-25 12:46 -5.96103 106.95824 12945 ft 353 kts 271°
2026-04-25 12:46 -5.96098 106.93335 12908 ft 351 kts 271°
2026-04-25 12:47 -5.96091 106.90913 12539 ft 352 kts 271°
2026-04-25 12:47 -5.96085 106.88441 11991 ft 348 kts 271°
2026-04-25 12:47 -5.96078 106.86079 11324 ft 344 kts 271°
2026-04-25 12:47 -5.96071 106.83664 11147 ft 321 kts 271°
2026-04-25 12:48 -5.96063 106.81457 10748 ft 310 kts 271°
2026-04-25 12:48 -5.96133 106.79290 10218 ft 306 kts 262°
2026-04-25 12:48 -5.96428 106.77952 9883 ft 303 kts 252°
2026-04-25 12:48 -5.97219 106.75933 9368 ft 298 kts 248°
2026-04-25 12:49 -5.98016 106.73982 8930 ft 296 kts 248°
2026-04-25 12:49 -5.98794 106.72074 8501 ft 294 kts 247°
2026-04-25 12:49 -5.99568 106.70170 8074 ft 293 kts 247°
2026-04-25 12:49 -6.00400 106.68123 7627 ft 294 kts 247°
2026-04-25 12:50 -6.01109 106.66370 7236 ft 295 kts 247°
2026-04-25 12:50 -6.01874 106.64477 6878 ft 293 kts 247°
2026-04-25 12:50 -6.02668 106.62517 6522 ft 290 kts 247°
2026-04-25 12:50 -6.03403 106.60702 6311 ft 283 kts 247°
2026-04-25 12:51 -6.04142 106.58877 6180 ft 271 kts 247°
2026-04-25 12:51 -6.04844 106.57139 5927 ft 266 kts 247°
2026-04-25 12:51 -6.05537 106.55419 5564 ft 265 kts 247°
2026-04-25 12:51 -6.06230 106.53707 5207 ft 264 kts 247°
2026-04-25 12:52 -6.06927 106.51984 5006 ft 258 kts 247°
2026-04-25 12:52 -6.07586 106.50350 5007 ft 258 kts 247°
2026-04-25 12:52 -6.08260 106.48677 5014 ft 259 kts 247°
2026-04-25 12:52 -6.08935 106.47004 5010 ft 256 kts 247°
2026-04-25 12:53 -6.09616 106.45321 4473 ft 266 kts 247°
2026-04-25 12:53 -6.10385 106.43578 3765 ft 274 kts 236°
2026-04-25 12:53 -6.11764 106.42353 3132 ft 264 kts 199°
2026-04-25 12:53 -6.13532 106.42128 2683 ft 247 kts 172°
2026-04-25 12:54 -6.15184 106.42363 2385 ft 233 kts 166°
2026-04-25 12:54 -6.16616 106.42958 2165 ft 218 kts 135°
2026-04-25 12:54 -6.17434 106.44221 2070 ft 214 kts 103°
2026-04-25 12:54 -6.17532 106.45678 2029 ft 200 kts 87°
2026-04-25 12:55 -6.17501 106.46737 2021 ft 196 kts 87°
2026-04-25 12:55 -6.17470 106.47831 2015 ft 194 kts 88°
2026-04-25 12:55 -6.17259 106.49766 2043 ft 184 kts 70°
2026-04-25 12:55 -6.16804 106.50892 2017 ft 168 kts 68°
2026-04-25 12:56 -6.16375 106.51954 2000 ft 154 kts 68°
2026-04-25 12:56 -6.15982 106.52930 1999 ft 150 kts 69°
2026-04-25 12:56 -6.15717 106.53593 1998 ft 148 kts 68°
2026-04-25 12:56 -6.15335 106.54553 2005 ft 147 kts 69°
2026-04-25 12:57 -6.14953 106.55511 1930 ft 149 kts 68°
2026-04-25 12:57 -6.14572 106.56469 1705 ft 148 kts 68°
2026-04-25 12:57 -6.14182 106.57446 1494 ft 147 kts 68°
2026-04-25 12:57 -6.13804 106.58392 1297 ft 147 kts 67°
2026-04-25 12:58 -6.13426 106.59338 1099 ft 147 kts 68°
2026-04-25 12:58 -6.13045 106.60292 930 ft 146 kts 68°
2026-04-25 12:58 -6.12667 106.61236 750 ft 145 kts 67°
2026-04-25 12:58 -6.12289 106.62178 562 ft 144 kts 66°
2026-04-25 12:59 -6.11945 106.63092 365 ft 143 kts 69°
2026-04-25 12:59 -6.11581 106.64045 175 ft 143 kts 65°
2026-04-25 12:59 -6.11177 106.65003 44 ft 140 kts 64°
2026-04-25 12:59 -6.10867 106.65761 43 ft 94 kts 67°
2026-04-25 13:00 -6.10692 106.66197 40 ft 48 kts 68°
2026-04-25 13:00 -6.10639 106.66327 39 ft 20 kts 70°
2026-04-25 13:00 -6.10633 106.66508 36 ft 14 kts 102°
2026-04-25 13:00 -6.10655 106.66610 38 ft 12 kts 101°
2026-04-25 13:01 -6.10706 106.66674 38 ft 12 kts 153°
2026-04-25 13:01 -6.10774 106.66687 36 ft 10 kts 185°
2026-04-25 13:01 -6.10824 106.66652 38 ft 8 kts 255°
2026-04-25 13:01 -6.10830 106.66600 38 ft 7 kts 262°
2026-04-25 13:02 -6.10840 106.66556 38 ft 6 kts 255°
2026-04-25 13:02 -6.10853 106.66520 37 ft 5 kts 250°
2026-04-25 13:02 -6.10862 106.66495 38 ft 4 kts 250°
2026-04-25 13:02 -6.10869 106.66474 38 ft 3 kts 250°
2026-04-25 13:03 -6.10880 106.66446 36 ft 5 kts 247°
2026-04-25 13:03 -6.10895 106.66411 38 ft 6 kts 247°
2026-04-25 13:03 -6.10912 106.66372 37 ft 6 kts 246°
2026-04-25 13:03 -6.10928 106.66333 37 ft 6 kts 246°
2026-04-25 13:04 -6.10947 106.66290 38 ft 9 kts 246°
2026-04-25 13:04 -6.10989 106.66195 39 ft 20 kts 247°
2026-04-25 13:04 -6.11037 106.66059 36 ft 20 kts 249°
2026-04-25 13:04 -6.11086 106.65938 39 ft 18 kts 247°
2026-04-25 13:05 -6.11133 106.65829 39 ft 16 kts 247°
2026-04-25 13:05 -6.11172 106.65729 38 ft 15 kts 249°
2026-04-25 13:05 -6.11210 106.65638 39 ft 13 kts 240°
2026-04-25 13:05 -6.11282 106.65627 39 ft 11 kts 158°
2026-04-25 13:06 -6.11343 106.65654 39 ft 9 kts 156°
2026-04-25 13:06 -6.11394 106.65672 38 ft 7 kts 176°
2026-04-25 13:06 -6.11432 106.65647 39 ft 6 kts 224°
2026-04-25 13:06 -6.11455 106.65622 39 ft 4 kts 227°
2026-04-25 13:07 -6.11476 106.65602 39 ft 4 kts 222°
2026-04-25 13:07 -6.11494 106.65587 39 ft 3 kts 219°
2026-04-25 13:07 -6.11511 106.65573 38 ft 3 kts 220°
2026-04-25 13:07 -6.11540 106.65551 39 ft 8 kts 211°
2026-04-25 13:08 -6.11605 106.65550 38 ft 10 kts 180°
2026-04-25 13:08 -6.11646 106.65511 38 ft 8 kts 246°
2026-04-25 13:08 -6.11665 106.65462 38 ft 7 kts 248°
2026-04-25 13:08 -6.11687 106.65408 36 ft 9 kts 248°
2026-04-25 13:09 -6.11720 106.65324 37 ft 15 kts 249°
2026-04-25 13:09 -6.11765 106.65234 39 ft 14 kts 223°
2026-04-25 13:09 -6.11824 106.65233 38 ft 12 kts 158°
2026-04-25 13:09 -6.11907 106.65298 38 ft 10 kts 122°
2026-04-25 13:10 -6.11939 106.65319 38 ft 5 kts 175°
2026-04-25 13:10 -6.11965 106.65299 38 ft 3 kts 230°
2026-04-25 13:10 -6.11977 106.65288 38 ft 2 kts 224°
2026-04-25 13:10 -6.11977 106.65287 38 ft 0 kts 224°